Probability
0 0 0 0 0 0 0 0 0 0 0 0 0 0 0 0 0 3 3 3 3 0 3 6 6 16 19 19 16 13 10 6 6 3 3 3 3 3 3 3 0 0 0 0
0 0 0 0 0 0 0 0 0 0 0 0 0 0 0 0 0 0 0 0 3 0 3 10 10 13 16 19 19 19 19 13 6 3 3 3 3 3 3 3 3 0 3 3
0 0 0 0 0 0 0 0 0 0 0 0 0 0 0 0 0 0 0 0 0 0 3 3 10 10 19 16 19 19 19 16 6 0 0 0 0 3 0 0 3 0 0 3
0 0 0 0 0 0 0 0 0 0 0 0 0 0 0 0 0 3 0 0 0 0 3 6 6 13 13 19 19 16 13 13 10 0 0 0 3 0 0 0 0 0 0 3
0 0 0 0 0 0 0 0 0 0 0 0 0 0 0 0 0 0 3 3 0 3 6 6 6 6 13 13 19 13 13 13 10 6 0 0 0 0 0 0 0 0 0 3
0 0 0 0 0 0 0 0 0 0 0 0 0 0 0 0 0 0 0 0 0 3 6 6 6 10 13 10 19 19 13 13 6 3 3 0 0 0 0 0 0 0 0 3
0 0 0 0 0 0 0 0 0 0 0 0 0 0 0 0 0 0 0 0 3 0 6 3 3 6 13 13 19 19 10 6 3 3 3 3 0 0 0 0 0 0 0 0
0 0 0 0 0 0 0 0 0 0 0 0 0 0 0 0 0 0 0 0 3 0 0 3 3 10 16 6 13 16 10 10 6 3 3 3 3 0 0 0 0 0 0 0
0 0 0 0 0 0 0 0 0 0 0 0 0 0 0 0 0 0 0 0 3 3 3 6 10 13 10 10 16 10 10 10 6 3 3 3 3 3 0 0 0 3 3 0
0 0 0 0 0 0 0 0 0 0 0 0 0 0 0 0 0 0 0 0 0 3 3 10 10 10 10 13 13 10 3 3 3 6 6 3 3 3 3 0 0 0 0 0
0 0 0 0 0 0 0 0 0 0 0 0 0 0 0 0 0 0 0 3 3 3 6 10 10 13 13 16 13 13 6 3 0 3 3 3 3 3 3 3 3 3 0 0
0 0 0 0 0 0 0 0 0 0 0 0 0 0 0 0 0 0 0 0 3 3 3 10 16 13 13 13 16 13 6 3 6 3 3 3 3 3 3 3 3 3 3 0
0 0 0 0 0 0 0 0 0 0 0 0 0 0 0 0 0 0 0 0 3 6 3 10 10 13 13 13 10 10 6 6 6 6 6 6 3 3 3 3 3 3 3 0
0 0 0 0 0 0 0 0 0 0 0 0 0 0 0 0 0 0 0 0 3 6 6 6 10 10 10 10 10 6 6 10 6 6 10 6 6 3 6 3 3 3 3 3
0 0 0 0 0 0 0 0 0 0 0 0 0 0 0 0 0 0 0 0 3 6 3 6 6 10 10 6 6 6 6 6 6 6 6 6 3 3 3 6 6 3 3 3
0 0 0 0 0 0 0 0 0 0 0 0 0 0 0 0 0 3 3 3 6 3 6 6 6 6 6 6 6 6 10 6 6 6 3 3 0 3 3 3 3 3 6 3
0 0 0 0 0 0 0 0 0 0 0 0 0 0 0 0 0 0 0 3 6 6 6 6 6 6 6 6 6 6 6 3 3 6 6 3 3 3 3 3 3 3 6 6
0 0 0 0 0 0 0 0 0 0 0 0 0 0 0 0 0 0 0 0 0 3 3 3 0 6 6 6 6 6 6 6 3 6 6 3 3 3 3 3 3 3 3 3
0 0 0 0 0 0 0 0 0 0 0 0 0 0 0 0 0 0 0 0 0 0 0 3 0 3 3 3 3 3 3 3 3 6 6 6 3 3 3 3 3 3 3 3
0 0 0 0 0 0 0 0 0 0 0 0 0 0 0 0 0 0 0 0 0 0 0 0 0 3 3 0 3 3 3 3 3 6 6 6 0 3 3 3 3 3 3 6
0 0 0 0 0 0 0 0 0 0 0 0 0 0 0 0 0 0 0 0 3 0 0 0 3 3 3 3 3 0 0 0 0 3 3 3 0 0 0 0 0 0 6 6
0 0 0 0 0 0 0 0 0 0 0 0 0 0 0 0 0 0 0 0 3 0 0 0 3 0 0 0 0 0 0 0 3 3 3 3 3 0 0 0 0 0 3 0
0 0 0 0 0 0 0 0 0 0 0 0 0 0 0 0 0 0 0 0 3 0 0 0 3 3 0 0 0 0 0 0 3 3 3 3 6 3 0 0 3 0 3 0
0 0 0 0 0 0 0 0 0 0 0 0 0 0 0 0 0 0 0 0 0 0 0 3 3 3 0 0 0 0 0 0 3 3 3 3 6 3 3 3 3 3 3 3
0 0 0 0 0 0 0 0 0 0 0 0 0 0 0 0 0 0 0 0 0 0 0 3 3 0 0 0 0 0 3 3 3 3 3 3 0 0 3 3 3 3 6 3
0 0 0 0 0 0 0 0 0 0 0 0 0 0 0 0 0 0 0 0 0 0 0 3 0 0 0 0 0 0 3 3 3 3 3 0 0 0 0 0 0 0 0 0
Height
5863 5864 5864 5864 5864 5865 5865 5865 5866 5867 5866 5867 5867 5867 5867 5867 5867 5867 5868 5868 5868 5868 5868 5868 5868 5868 5868 5868 5868 5868 5868 5869 5869 5870 5871 5872 5872 5872 5873 5873 5873 5873 5873 5873
5861 5861 5861 5861 5861 5862 5862 5863 5863 5864 5863 5864 5864 5864 5864 5864 5864 5864 5864 5864 5865 5865 5865 5865 5864 5864 5864 5864 5865 5865 5865 5866 5866 5867 5868 5869 5869 5869 5870 5870 5870 5870 5870 5870
5858 5859 5858 5858 5859 5859 5859 5860 5860 5860 5860 5860 5861 5861 5861 5860 5860 5860 5860 5860 5861 5861 5861 5861 5861 5861 5861 5861 5862 5862 5862 5862 5863 5864 5864 5865 5866 5866 5866 5867 5867 5867 5867 5867
5856 5856 5856 5856 5856 5856 5857 5857 5857 5857 5857 5858 5858 5858 5858 5857 5856 5856 5856 5857 5857 5857 5857 5857 5857 5857 5857 5858 5858 5858 5859 5859 5860 5861 5861 5862 5862 5863 5863 5863 5864 5864 5864 5864
5853 5853 5853 5853 5853 5853 5854 5854 5854 5854 5854 5855 5854 5855 5855 5853 5853 5853 5853 5853 5853 5853 5853 5853 5853 5853 5854 5854 5854 5855 5856 5856 5857 5857 5858 5859 5859 5860 5860 5860 5861 5861 5861 5861
5850 5850 5850 5850 5850 5850 5850 5851 5851 5851 5851 5852 5851 5851 5852 5850 5849 5849 5848 5848 5848 5848 5848 5849 5849 5849 5850 5850 5851 5852 5852 5853 5853 5854 5855 5855 5856 5856 5857 5857 5857 5858 5858 5858
5847 5847 5847 5847 5847 5847 5848 5848 5849 5848 5848 5849 5848 5847 5848 5847 5846 5845 5844 5844 5844 5844 5844 5845 5845 5845 5846 5847 5847 5848 5849 5849 5850 5851 5852 5852 5853 5853 5853 5854 5854 5854 5855 5855
5844 5844 5844 5844 5844 5844 5844 5845 5846 5846 5845 5845 5844 5844 5844 5843 5842 5841 5840 5840 5840 5840 5840 5841 5841 5842 5842 5843 5844 5845 5845 5846 5847 5847 5848 5848 5849 5849 5849 5850 5850 5850 5851 5851
5840 5840 5840 5840 5840 5841 5840 5841 5841 5841 5841 5841 5841 5840 5840 5839 5838 5837 5836 5836 5836 5836 5836 5837 5837 5837 5838 5839 5840 5841 5842 5842 5843 5844 5844 5845 5845 5845 5846 5846 5846 5846 5847 5847
5836 5836 5836 5836 5836 5836 5837 5837 5837 5837 5837 5837 5837 5836 5836 5835 5834 5833 5832 5832 5832 5832 5832 5832 5833 5833 5834 5835 5836 5837 5838 5839 5840 5840 5841 5841 5841 5842 5842 5842 5842 5842 5843 5843
5831 5832 5832 5832 5832 5832 5833 5833 5832 5833 5833 5833 5833 5835 5832 5831 5830 5829 5828 5828 5828 5828 5828 5828 5829 5829 5830 5831 5832 5833 5834 5835 5835 5836 5837 5837 5837 5838 5838 5838 5838 5839 5839 5839
5826 5827 5827 5827 5827 5827 5828 5828 5829 5829 5829 5828 5828 5832 5827 5827 5825 5825 5824 5824 5824 5824 5824 5824 5825 5825 5826 5827 5828 5829 5830 5830 5831 5832 5832 5833 5833 5833 5834 5834 5834 5835 5834 5834
5821 5822 5823 5823 5824 5824 5823 5824 5824 5824 5824 5824 5824 5827 5823 5822 5821 5821 5820 5820 5820 5820 5820 5820 5821 5822 5822 5823 5824 5825 5825 5826 5827 5827 5828 5828 5829 5829 5829 5829 5830 5830 5830 5830
5816 5817 5818 5819 5818 5818 5819 5819 5819 5819 5819 5820 5820 5820 5819 5818 5817 5816 5816 5816 5816 5816 5816 5817 5817 5818 5818 5819 5820 5820 5821 5822 5822 5823 5823 5824 5824 5825 5825 5825 5825 5825 5826 5826
5810 5812 5812 5813 5813 5813 5814 5814 5814 5814 5815 5815 5815 5815 5814 5813 5813 5812 5812 5812 5812 5812 5812 5813 5813 5814 5814 5815 5815 5816 5816 5817 5818 5818 5819 5819 5820 5820 5820 5820 5821 5821 5821 5821
5805 5806 5807 5807 5808 5807 5808 5809 5809 5809 5809 5809 5810 5810 5809 5808 5808 5808 5807 5807 5808 5808 5808 5809 5809 5810 5810 5810 5811 5811 5812 5812 5813 5814 5814 5815 5815 5815 5816 5816 5816 5816 5817 5817
5799 5800 5801 5802 5802 5802 5802 5804 5803 5804 5804 5804 5804 5805 5804 5803 5803 5803 5803 5803 5803 5803 5804 5804 5805 5805 5805 5806 5806 5807 5807 5808 5809 5809 5810 5810 5811 5811 5811 5812 5812 5812 5812 5812
5793 5794 5794 5795 5796 5796 5800 5798 5798 5798 5798 5798 5798 5798 5798 5798 5798 5798 5798 5798 5798 5799 5799 5800 5800 5801 5801 5802 5802 5802 5803 5804 5804 5805 5805 5806 5807 5807 5807 5807 5808 5808 5808 5808
5787 5787 5788 5788 5788 5789 5791 5792 5791 5791 5791 5792 5792 5793 5793 5793 5793 5792 5792 5793 5793 5793 5794 5795 5795 5796 5797 5797 5798 5798 5799 5799 5800 5800 5801 5801 5802 5803 5803 5803 5803 5803 5803 5803
5780 5781 5782 5781 5781 5783 5786 5785 5784 5785 5785 5786 5786 5786 5787 5787 5787 5788 5787 5787 5788 5788 5789 5790 5791 5791 5792 5792 5793 5794 5794 5795 5796 5796 5797 5798 5798 5798 5799 5799 5799 5799 5799 5799
5772 5773 5774 5774 5774 5775 5777 5778 5778 5780 5781 5780 5779 5780 5780 5780 5782 5782 5782 5782 5782 5783 5784 5785 5786 5786 5787 5788 5788 5789 5790 5791 5791 5792 5793 5793 5794 5794 5795 5795 5795 5795 5795 5795
5764 5765 5766 5766 5767 5770 5770 5770 5771 5772 5772 5772 5772 5773 5773 5774 5775 5775 5776 5776 5777 5778 5778 5779 5780 5781 5782 5783 5784 5784 5785 5786 5787 5787 5788 5789 5790 5790 5790 5791 5791 5791 5791 5791
5756 5757 5758 5759 5761 5761 5761 5762 5762 5763 5764 5765 5765 5766 5766 5767 5768 5769 5769 5770 5771 5772 5773 5774 5775 5776 5776 5777 5778 5779 5780 5781 5782 5783 5783 5784 5785 5785 5786 5786 5786 5786 5787 5787
5747 5748 5749 5750 5752 5752 5753 5753 5754 5755 5756 5757 5758 5759 5759 5760 5761 5762 5762 5763 5765 5766 5767 5768 5769 5770 5771 5772 5773 5774 5775 5776 5777 5778 5779 5779 5780 5780 5781 5781 5782 5782 5782 5782
5739 5740 5741 5742 5743 5744 5744 5745 5746 5747 5748 5749 5750 5751 5752 5753 5754 5755 5756 5757 5758 5759 5760 5761 5763 5764 5765 5766 5767 5768 5769 5770 5771 5772 5773 5774 5774 5775 5775 5776 5777 5777 5777 5777
5730 5731 5732 5734 5735 5735 5736 5737 5738 5740 5741 5742 5743 5743 5744 5745 5746 5747 5748 5750 5751 5752 5753 5755 5756 5757 5759 5760 5761 5762 5763 5764 5765 5766 5767 5768 5769 5769 5770 5770 5771 5771 5771 5771
Wind_Speed
8 8 8 9 9 9 9 9 10 10 11 11 12 12 13 13 14 14 14 13 13 13 14 14 14 14 15 15 14 14 15 14 14 14 14 14 14 14 15 15 14 14 13 13
8 9 9 9 9 9 9 10 11 11 12 12 12 12 12 13 14 14 14 14 14 14 14 15 14 15 15 15 15 15 15 14 14 14 14 14 15 15 15 14 14 14 14 14
9 8 8 8 8 9 9 10 11 11 12 12 12 12 12 12 13 14 14 14 15 15 15 15 14 14 14 14 15 16 15 15 15 15 15 16 15 15 15 14 14 14 14 13
9 8 8 8 9 9 10 10 10 11 11 12 12 12 12 13 13 13 14 14 15 15 15 15 15 15 14 14 14 15 15 16 16 15 16 16 15 15 15 15 14 14 14 14
9 9 9 10 10 10 10 10 10 11 11 11 12 12 11 12 13 14 14 14 14 15 15 15 15 15 14 14 15 15 14 15 15 15 15 15 15 14 14 14 14 14 14 14
10 10 10 11 10 10 10 11 11 11 11 12 12 12 12 12 13 14 15 15 14 15 15 15 15 16 16 15 15 14 14 14 15 14 15 15 15 15 14 13 14 14 14 14
11 11 11 11 11 11 11 11 11 12 12 12 12 13 12 12 13 14 14 15 15 15 16 16 16 16 16 16 15 14 14 14 14 15 15 15 15 15 15 14 14 14 14 14
12 12 12 12 12 12 12 12 12 13 13 13 13 13 13 13 14 14 14 15 15 15 15 15 15 15 15 15 15 14 15 15 15 14 15 15 15 16 15 14 15 15 15 15
14 14 13 13 13 13 13 13 13 13 13 13 13 14 14 14 14 14 14 14 14 14 14 14 15 15 15 15 15 15 15 15 15 15 15 15 15 15 15 14 15 15 15 15
14 15 14 14 13 13 14 13 13 13 13 13 14 14 14 14 14 14 14 14 14 14 14 13 14 14 14 15 15 15 16 16 16 16 16 15 15 16 16 15 15 15 16 15
15 15 15 15 14 14 14 14 14 14 14 14 15 15 15 14 14 14 13 14 14 14 14 14 14 14 15 15 16 16 16 17 17 16 16 15 15 16 16 16 16 16 16 16
16 16 16 16 16 15 15 15 15 15 15 15 16 16 15 14 14 14 14 14 14 14 14 14 14 15 15 15 16 16 16 16 16 16 16 16 16 16 16 17 17 17 17 17
18 17 17 17 17 17 16 16 16 16 16 16 16 16 15 14 15 15 15 15 15 14 14 14 14 14 14 15 16 16 16 16 16 16 16 16 16 15 15 16 16 16 17 17
19 19 18 18 18 18 17 17 17 17 18 17 17 16 16 16 16 15 15 15 15 15 15 15 15 14 14 15 16 16 16 16 16 16 15 16 16 16 16 15 16 16 16 16
20 20 19 20 20 19 19 18 19 19 19 19 18 17 16 17 16 16 16 16 15 15 15 15 15 14 15 15 15 16 16 16 16 16 16 15 15 16 16 16 16 15 15 15
20 20 20 20 21 21 20 20 20 20 20 20 19 18 17 17 17 17 16 16 15 15 15 15 15 15 15 15 15 16 16 16 16 16 16 15 15 15 15 16 16 15 15 16
21 21 21 22 21 21 21 20 21 21 20 20 20 18 18 18 17 17 17 17 16 16 16 16 15 15 15 15 15 15 15 16 16 16 16 16 15 15 15 15 15 16 16 15
22 22 23 23 23 24 22 20 20 21 20 20 19 19 18 17 17 17 17 17 17 17 16 16 16 16 15 15 15 15 15 15 16 16 15 15 16 16 16 15 14 14 15 15
23 24 25 25 25 24 22 21 21 21 21 20 20 19 18 18 18 18 17 17 16 16 16 16 17 16 15 15 15 15 15 15 15 15 14 15 15 14 14 14 14 14 15 15
25 25 26 26 26 26 24 22 21 21 21 20 21 20 20 19 18 19 18 17 17 16 15 15 16 16 15 15 15 15 14 14 14 14 14 14 14 14 14 14 14 14 14 14
26 27 27 27 27 27 25 23 23 23 22 21 21 21 21 20 19 19 18 18 17 17 16 16 16 16 16 15 15 14 14 13 14 14 14 14 14 14 14 14 14 14 14 14
28 28 28 27 28 27 25 25 24 24 23 22 23 22 22 21 20 19 18 18 18 18 17 17 16 16 16 16 16 15 15 14 14 15 14 14 15 15 15 15 14 14 14 14
29 29 28 28 27 26 26 26 26 25 24 23 23 22 22 22 22 20 20 19 19 19 18 17 17 17 17 17 17 16 16 16 16 15 15 15 16 16 15 15 15 15 14 14
29 29 28 27 27 27 27 27 26 26 25 24 24 23 24 23 23 22 21 20 20 20 19 19 18 18 18 17 17 17 17 17 16 16 16 16 17 17 17 16 16 15 15 15
28 27 27 27 27 27 27 26 26 25 25 24 24 25 24 24 24 23 22 21 21 21 20 20 19 19 19 18 18 18 18 17 18 18 17 17 18 18 18 17 17 17 17 17
27 27 28 27 27 27 26 26 26 26 25 25 25 25 26 25 24 24 23 22 22 22 21 21 20 20 20 20 19 19 19 19 19 18 18 18 18 18 19 18 18 18 18 18
Wind_Direction
275 273 274 273 268 264 262 260 259 263 265 264 263 261 259 259 261 261 262 264 264 264 264 267 269 270 266 262 258 256 256 255 254 251 253 257 257 259 260 260 258 259 263 260
275 274 273 271 268 268 267 266 265 268 267 267 266 266 264 263 262 263 264 265 264 265 264 265 267 268 267 262 256 255 257 253 253 251 253 258 259 261 260 260 259 260 262 260
274 273 270 268 270 271 270 270 270 271 269 267 269 269 269 268 267 264 263 264 264 264 264 265 264 265 265 261 258 256 255 253 255 252 253 257 258 258 259 259 260 262 262 259
269 272 274 273 271 272 272 271 271 271 269 270 272 272 271 271 272 271 266 264 265 263 263 263 262 265 264 260 258 258 255 254 254 256 257 257 255 256 256 257 260 262 261 261
271 272 273 274 275 273 274 275 274 273 272 272 274 272 271 272 272 273 271 268 268 268 266 264 262 263 262 258 256 258 257 255 254 256 257 258 255 256 256 258 259 259 260 260
271 270 271 273 272 273 276 276 277 276 276 274 275 274 272 272 273 272 270 269 269 270 267 266 263 261 260 256 258 259 258 257 255 257 258 258 257 255 257 258 258 259 259 259
272 272 273 274 273 275 276 277 278 280 278 277 277 276 277 276 278 276 271 268 268 268 266 266 265 263 260 257 256 257 256 254 255 256 258 259 258 256 256 257 259 259 258 259
273 272 272 274 273 275 276 276 275 277 278 278 275 275 277 278 279 277 273 271 270 266 264 263 263 262 260 256 253 254 256 254 255 257 259 261 260 257 256 258 259 258 258 259
271 271 270 270 269 270 271 270 271 272 276 277 276 276 278 281 281 278 274 272 272 268 266 264 262 260 259 255 253 252 255 254 254 256 259 261 260 258 258 259 259 259 261 262
269 269 270 268 266 265 268 268 268 268 272 274 275 277 282 282 283 277 274 273 273 270 268 265 265 264 260 256 253 252 255 255 255 258 260 259 259 259 259 259 259 260 261 263
266 268 269 266 265 265 266 267 269 270 271 275 276 278 282 283 281 275 272 271 269 268 267 266 267 265 262 257 254 254 256 256 255 255 256 257 259 261 259 258 258 260 263 263
264 265 266 267 266 263 264 265 269 272 274 274 278 279 282 281 280 277 274 271 268 267 266 265 267 265 262 259 256 256 258 259 258 254 255 256 259 259 257 256 258 260 262 262
262 261 264 265 264 262 261 263 266 270 271 273 278 280 280 278 278 277 276 273 269 267 265 264 264 264 264 262 258 258 259 259 259 258 258 258 258 258 257 258 259 260 261 261
261 261 261 262 262 262 261 263 265 267 268 272 275 277 277 276 275 276 275 272 268 267 264 263 263 265 264 263 261 263 262 259 260 261 261 261 259 259 259 259 259 259 261 262
260 260 261 261 260 261 262 263 264 265 267 269 272 275 275 273 276 277 274 272 269 265 262 262 263 264 264 264 264 265 263 261 261 261 261 262 262 260 259 258 257 259 262 263
261 262 262 262 260 261 262 263 265 266 267 268 269 272 273 273 275 273 272 270 267 264 262 263 264 265 265 265 266 264 263 262 262 262 261 263 263 262 262 259 258 260 262 264
260 263 264 264 264 263 263 265 266 266 265 267 268 269 270 273 272 271 270 267 263 262 262 262 264 266 268 265 265 265 262 260 261 261 258 259 261 261 261 261 259 260 262 265
259 261 264 265 264 263 266 265 265 265 264 265 265 266 268 270 271 271 269 267 264 263 261 261 262 264 267 263 263 265 262 260 261 261 258 256 259 260 259 260 261 264 264 266
258 261 264 265 266 266 266 266 266 264 262 262 262 262 263 265 267 267 267 265 264 262 261 260 260 262 264 262 262 263 262 260 260 259 260 260 257 256 259 263 265 266 265 268
258 260 261 264 266 266 266 265 263 262 261 260 260 260 260 263 265 265 264 262 261 259 259 259 258 260 261 262 262 263 260 259 257 256 257 259 258 260 262 264 266 266 264 267
257 258 260 263 265 265 266 264 262 262 263 260 259 258 258 263 264 262 262 260 257 255 257 257 258 258 257 259 260 259 258 257 256 256 257 259 261 262 263 265 266 264 265 265
257 258 259 261 263 263 263 262 261 261 262 259 258 259 260 261 259 257 258 257 254 255 256 257 257 256 257 257 257 256 256 255 255 256 258 258 259 262 263 266 266 265 266 264
259 259 259 259 260 262 259 259 260 260 260 258 258 258 259 257 255 255 255 255 254 254 256 256 258 258 258 256 255 254 255 255 255 257 258 258 258 261 264 265 264 264 266 264
259 259 259 259 259 259 259 259 258 258 256 256 256 255 254 253 253 253 253 253 254 253 254 255 256 256 256 256 255 256 255 256 254 256 257 259 259 259 260 262 263 264 266 266
260 260 260 258 258 258 258 258 258 257 255 255 254 255 254 253 253 253 254 254 254 253 253 254 255 255 255 257 257 256 254 253 254 257 258 259 259 258 258 259 261 263 265 267
262 261 259 258 257 257 256 255 257 258 256 255 254 256 255 253 253 253 254 254 255 255 254 255 256 257 256 259 259 258 256 256 256 257 259 260 260 258 258 259 261 265 266 266